Fort Benning, AL

3:54 AM CDT on June 29, 2017 (GMT -0500)
Lawson Army Air Field

Weather History for KLSF - July, 2013

Change the Weather History Date:

Tuesday, July 23, 2013

  Actual Average Record
Temperature  
Mean Temperature 78 °F -  
Max Temperature 89 °F 89 °F 99 °F (2010)
Min Temperature 69 °F 68 °F 64 °F (2007)
Cooling Degree Days 14    
Growing Degree Days 28 (Base 50)    
Moisture  
Dew Point 73 °F    
Average Humidity 94    
Maximum Humidity 100    
Minimum Humidity 65    
Precipitation  
Precipitation 0.70 in - - ()
Sea Level Pressure  
Sea Level Pressure 29.95 in    
Wind  
Wind Speed 5 mph (WSW)    
Max Wind Speed 17 mph    
Max Gust Speed 31 mph    
Visibility 8 miles    
Events Rain , Thunderstorm    
Averages and records for this station are not official NWS values.
T = Trace of Precipitation, MM = Missing Value Source: NWS Daily Summary

Daily Weather History Graph

Daily Weather History Graph

Search for Another Location

Airport or City:

Trip Planner

Search our weather history database for the weather conditions in past years. The results will help you decide how hot, cold, wet, or windy it might be!

Date:

Astronomy

Jul. 23, 2013 Rise Set
Actual Time 6:48 AM EDT 8:43 PM EDT
Civil Twilight 6:21 AM EDT 9:10 PM EDT
Nautical Twilight 5:48 AM EDT 9:43 PM EDT
Astronomical Twilight 5:13 AM EDT 10:18 PM EDT
Moon 9:20 PM EDT (7/23) 7:49 AM EDT (7/23)
Length of Visible Light 14h 49m
Length of Day
13h 54m
Full, 99% of the Moon is Illuminated
Jul 23
Full
Jul 29
Last Quarter
Aug 6
New
Aug 14
First Quarter
Aug 20
Full

Hourly Weather History & Observations

Time (EDT) Temp. Heat Index Dew Point Humidity Pressure Visibility Wind Dir Wind Speed Gust Speed Precip Events Conditions
12:03 AM 73.4 °F - 71.6 °F 94% 29.98 in 10.0 mi SW 3.5 mph - N/A   Mostly Cloudy
12:38 AM 71.6 °F - 71.6 °F 100% 29.98 in 10.0 mi WSW 3.5 mph - N/A   Scattered Clouds
12:58 AM 72.0 °F - 71.8 °F 99% 29.99 in 10.0 mi SW 2.3 mph - N/A   Partly Cloudy
1:13 AM 71.6 °F - 71.6 °F 100% 29.98 in 10.0 mi SSW 2.3 mph - N/A   Mostly Cloudy
1:18 AM 71.6 °F - 71.6 °F 100% 29.98 in 10.0 mi SW 2.3 mph - N/A   Mostly Cloudy
1:51 AM 71.6 °F - 71.6 °F 100% 29.98 in 10.0 mi Calm Calm - N/A   Light Drizzle
1:58 AM 71.8 °F - 71.4 °F 99% 29.99 in 10.0 mi SSW 1.2 mph - 0.00 in   Light Drizzle
1:59 AM 71.6 °F - 71.6 °F 100% 29.97 in 10.0 mi South 1.2 mph - N/A   Overcast
2:58 AM 71.2 °F - 70.9 °F 99% 29.99 in 10.0 mi SSW 1.2 mph - 0.00 in   Mostly Cloudy
3:58 AM 71.8 °F - 71.4 °F 99% 29.99 in 10.0 mi SSW 3.5 mph - N/A   Overcast
4:13 AM 71.6 °F - 71.6 °F 100% 29.98 in 10.0 mi South 3.5 mph - N/A   Overcast
4:58 AM 72.1 °F - 71.8 °F 99% 29.99 in 10.0 mi SSW 3.5 mph - N/A   Overcast
5:23 AM 71.6 °F - 71.6 °F 100% 30.00 in 9.0 mi SSW 4.6 mph - N/A   Overcast
5:33 AM 71.6 °F - 71.6 °F 100% 30.00 in 10.0 mi SSW 4.6 mph - N/A   Overcast
5:43 AM 71.6 °F - 71.6 °F 100% 29.99 in 10.0 mi South 5.8 mph - N/A   Overcast
5:53 AM 71.6 °F - 71.6 °F 100% 29.99 in 10.0 mi SSW 3.5 mph - N/A   Overcast
5:56 AM 71.6 °F - 71.6 °F 100% 30.00 in 10.0 mi SSW 4.6 mph - N/A   Overcast
5:58 AM 71.6 °F - 71.6 °F 100% 29.99 in 10.0 mi SSW 4.6 mph - N/A   Overcast
6:08 AM 73.4 °F - 71.6 °F 94% 30.00 in 10.0 mi SSW 4.6 mph - N/A   Overcast
6:09 AM 73.4 °F - 71.6 °F 94% 30.00 in 10.0 mi SSW 4.6 mph - N/A   Overcast
6:49 AM 73.4 °F - 71.6 °F 94% 30.00 in 10.0 mi SW 4.6 mph - N/A   Overcast
6:58 AM 72.7 °F - 72.3 °F 99% 30.01 in 10.0 mi SW 4.6 mph - N/A   Overcast
7:18 AM 73.4 °F - 71.6 °F 94% 29.99 in 10.0 mi SSW 4.6 mph - N/A   Overcast
7:58 AM 73.2 °F - 72.9 °F 99% 30.01 in 10.0 mi Variable 2.3 mph - N/A   Overcast
8:43 AM 73.4 °F - 73.4 °F 100% 29.99 in 10.0 mi SSW 4.6 mph - N/A   Overcast
8:53 AM 75.2 °F - 73.4 °F 94% 29.99 in 10.0 mi SW 3.5 mph - N/A   Overcast
8:58 AM 74.7 °F - 73.4 °F 96% 29.99 in 10.0 mi Variable 2.3 mph - N/A   Overcast
9:18 AM 75.2 °F - 73.4 °F 94% 30.00 in 10.0 mi Variable 4.6 mph - N/A   Overcast
9:40 AM 75.2 °F - 73.4 °F 94% 30.00 in 10.0 mi Variable 4.6 mph - N/A   Overcast
9:58 AM 75.7 °F - 73.9 °F 94% 30.01 in 10.0 mi West 4.6 mph - N/A   Overcast
10:13 AM 77.0 °F - 75.2 °F 94% 30.01 in 10.0 mi WNW 6.9 mph - N/A   Overcast
10:33 AM 77.0 °F - 75.2 °F 94% 30.01 in 10.0 mi WNW 8.1 mph - N/A   Overcast
10:58 AM 77.4 °F - 74.1 °F 90% 30.03 in 10.0 mi WNW 6.9 mph - N/A   Overcast
11:36 AM 78.8 °F - 75.2 °F 89% 30.01 in 10.0 mi WNW 8.1 mph - N/A   Mostly Cloudy
11:53 AM 80.6 °F 86.2 °F 75.2 °F 84% 30.00 in 10.0 mi NW 8.1 mph - N/A   Mostly Cloudy
11:58 AM 81.3 °F 87.8 °F 75.6 °F 83% 29.99 in 10.0 mi NW 11.5 mph - N/A   Scattered Clouds
12:58 PM 84.0 °F 91.5 °F 74.5 °F 73% 29.96 in 10.0 mi Variable 3.5 mph - N/A   Scattered Clouds
1:58 PM 87.1 °F 96.8 °F 75.2 °F 68% 29.94 in 10.0 mi West 4.6 mph - N/A   Scattered Clouds
2:58 PM 88.9 °F 99.7 °F 75.7 °F 65% 29.92 in 10.0 mi Variable 5.8 mph - N/A   Partly Cloudy
3:58 PM 86.2 °F 95.5 °F 75.2 °F 70% 29.89 in 10.0 mi SSW 2.3 mph - N/A Thunderstorm Partly Cloudy
4:43 PM 87.8 °F 99.7 °F 77.0 °F 70% 29.86 in 10.0 mi West 8.1 mph - N/A Thunderstorm Mostly Cloudy
4:47 PM 86.0 °F 96.9 °F 77.0 °F 74% 29.87 in 10.0 mi West 5.8 mph - N/A Thunderstorm Thunderstorm
4:50 PM 86.0 °F 96.9 °F 77.0 °F 74% 29.87 in 10.0 mi West 10.4 mph - N/A Rain , Thunderstorm Light Thunderstorms and Rain
4:55 PM 84.2 °F 96.1 °F 78.8 °F 84% 29.88 in 1.5 mi West 11.5 mph 20.7 mph N/A Rain , Thunderstorm Heavy Thunderstorms and Rain
4:58 PM 82.4 °F 90.9 °F 77.0 °F 84% 29.88 in 1.0 mi West 8.1 mph 20.7 mph 0.06 in Rain , Thunderstorm Heavy Thunderstorms and Rain
5:03 PM 78.8 °F - 75.2 °F 89% 29.88 in 0.8 mi Variable 2.3 mph 20.7 mph N/A Rain , Thunderstorm Heavy Thunderstorms and Rain
5:08 PM 77.0 °F - 73.4 °F 89% 29.88 in 2.0 mi South 9.2 mph - N/A Rain , Thunderstorm Light Thunderstorms and Rain
5:13 PM 77.0 °F - 75.2 °F 94% 29.89 in 8.0 mi SE 5.8 mph - N/A Rain , Thunderstorm Light Thunderstorms and Rain
5:23 PM 77.0 °F - 77.0 °F 100% 29.88 in 8.0 mi East 5.8 mph - N/A Rain , Thunderstorm Light Rain
5:28 PM 77.0 °F - 77.0 °F 100% 29.88 in 10.0 mi ESE 5.8 mph - N/A Thunderstorm Mostly Cloudy
5:33 PM 77.0 °F - 77.0 °F 100% 29.87 in 10.0 mi ESE 8.1 mph - N/A Thunderstorm Scattered Clouds
5:58 PM 75.6 °F - 75.0 °F 98% 29.86 in 10.0 mi East 6.9 mph - 0.12 in   Partly Cloudy
6:22 PM 75.2 °F - 73.4 °F 94% 29.92 in 10.0 mi SSW 17.3 mph 31.1 mph N/A Rain , Thunderstorm Light Rain
6:25 PM 75.2 °F - 73.4 °F 94% 29.93 in 8.0 mi SW 16.1 mph 31.1 mph N/A Rain , Thunderstorm Light Rain
6:30 PM 73.4 °F - 71.6 °F 94% 29.92 in 2.0 mi SSW 15.0 mph 31.1 mph N/A Rain , Thunderstorm Heavy Rain
6:32 PM 73.4 °F - 71.6 °F 94% 29.92 in 1.2 mi WSW 17.3 mph 24.2 mph N/A Rain , Thunderstorm Heavy Rain
6:33 PM 73.4 °F - 71.6 °F 94% 29.92 in 1.2 mi WSW 16.1 mph 24.2 mph N/A Rain , Thunderstorm Heavy Rain
6:38 PM 73.4 °F - 71.6 °F 94% 29.92 in 0.8 mi Variable 6.9 mph 24.2 mph N/A Rain , Thunderstorm Heavy Rain
6:43 PM 73.4 °F - 71.6 °F 94% 29.91 in 1.0 mi SW 6.9 mph 24.2 mph N/A Rain , Thunderstorm Heavy Rain
6:48 PM 71.6 °F - 71.6 °F 100% 29.91 in 1.5 mi Variable 6.9 mph - N/A Rain , Thunderstorm Heavy Rain
6:50 PM 71.6 °F - 71.6 °F 100% 29.91 in 2.5 mi Variable 6.9 mph - N/A Rain , Thunderstorm Heavy Thunderstorms and Rain
6:55 PM 71.6 °F - 71.6 °F 100% 29.91 in 4.0 mi SW 5.8 mph - N/A Rain , Thunderstorm Thunderstorms and Rain
6:58 PM 72.1 °F - 71.8 °F 99% 29.91 in 5.0 mi West 5.8 mph - 0.33 in Rain , Thunderstorm Thunderstorms and Rain
7:05 PM 71.6 °F - 71.6 °F 100% 29.92 in 8.0 mi West 6.9 mph - N/A Rain , Thunderstorm Rain
7:10 PM 71.6 °F - 71.6 °F 100% 29.92 in 9.0 mi WSW 6.9 mph - N/A Rain , Thunderstorm Rain
7:20 PM 71.6 °F - 71.6 °F 100% 29.91 in 4.0 mi West 5.8 mph - N/A Rain , Thunderstorm Heavy Rain
7:58 PM 72.0 °F - 71.6 °F 99% 29.91 in 6.0 mi West 5.8 mph - 0.13 in Rain Rain
8:08 PM 71.6 °F - 71.6 °F 100% 29.90 in 10.0 mi NW 4.6 mph - N/A Rain Rain
8:58 PM 71.4 °F - 71.1 °F 99% 29.91 in 10.0 mi West 1.2 mph - 0.05 in Rain Light Rain
9:29 PM 71.6 °F - 71.6 °F 100% 29.91 in 10.0 mi Calm Calm - N/A   Partly Cloudy
9:58 PM 71.2 °F - 70.9 °F 99% 29.93 in 10.0 mi WSW 4.6 mph - 0.01 in   Partly Cloudy
10:58 PM 71.1 °F - 70.9 °F 99% 29.93 in 10.0 mi West 2.3 mph - N/A   Partly Cloudy
11:23 PM 69.8 °F - 69.8 °F 100% 29.91 in 8.0 mi NW 1.2 mph - N/A   Clear
11:30 PM 69.8 °F - 69.8 °F 100% 29.91 in 8.0 mi West 2.3 mph - N/A   Partly Cloudy
11:35 PM 69.8 °F - 69.8 °F 100% 29.91 in 10.0 mi Variable 4.6 mph - N/A   Partly Cloudy
11:58 PM 70.2 °F - 69.8 °F 99% 29.91 in 10.0 mi NW 2.3 mph - N/A   Scattered Clouds